Sugar Grove, IL

11:23 AM CST on February 09, 2016 (GMT -0600)
Aurora Municipal

Weather History for KARR - September, 2013

Change the Weather History Date:

Tuesday, September 24, 2013

  Actual Average Record
Temperature  
Mean Temperature 60 °F 59 °F  
Max Temperature 74 °F 72 °F 92 °F (2007)
Min Temperature 45 °F 47 °F 29 °F (2012)
Degree Days  
Heating Degree Days 5 7  
Month to date heating degree days 79 79  
Since 1 July heating degree days 107 103  
Cooling Degree Days 0 1  
Month to date cooling degree days 101 58  
Year to date cooling degree days 728 642  
Growing Degree Days 10 (Base 50)    
Moisture  
Dew Point 48 °F    
Average Humidity 65    
Maximum Humidity 89    
Minimum Humidity 41    
Precipitation  
Precipitation 0.00 in 0.13 in 0.24 in (2005)
Month to date precipitation 0.75 2.63  
Year to date precipitation 26.98 27.83  
Sea Level Pressure  
Sea Level Pressure 30.00 in    
Wind  
Wind Speed 8 mph (East)    
Max Wind Speed 15 mph    
Max Gust Speed 20 mph    
Visibility 10 miles    
Events      
T = Trace of Precipitation, MM = Missing Value Source: NWS Daily Summary

Daily Weather History Graph

Daily Weather History Graph

Search for Another Location

Airport or City:

Trip Planner

Search our weather history database for the weather conditions in past years. The results will help you decide how hot, cold, wet, or windy it might be!

Date:

Astronomy

Sep. 24, 2013 Rise Set
Actual Time 6:43 AM CDT 6:47 PM CDT
Civil Twilight 6:15 AM CDT 7:14 PM CDT
Nautical Twilight 5:43 AM CDT 7:47 PM CDT
Astronomical Twilight 5:10 AM CDT 8:20 PM CDT
Moon 10:00 PM CDT (9/24) 12:02 PM CDT (9/24)
Length of Visible Light 12h 58m
Length of Day
12h 03m
Waning Gibbous, 73% of the Moon is Illuminated
Sep 24
Waning Gibbous
Sep 26
Last Quarter
Oct 4
New
Oct 11
First Quarter
Oct 18
Full

Hourly Weather History & Observations

Time (CDT) Temp. Windchill Dew Point Humidity Pressure Visibility Wind Dir Wind Speed Gust Speed Precip Events Conditions
12:52 AM 52.0 °F - 46.9 °F 83% 30.04 in 10.0 mi ESE 5.8 mph - N/A   Clear
1:52 AM 50.0 °F - 45.0 °F 83% 30.04 in 10.0 mi ESE 5.8 mph - N/A   Clear
2:52 AM 48.9 °F - 45.0 °F 86% 30.05 in 10.0 mi SE 5.8 mph - N/A   Clear
3:52 AM 48.0 °F - 44.1 °F 86% 30.05 in 10.0 mi ESE 5.8 mph - N/A   Clear
4:52 AM 46.0 °F - 43.0 °F 89% 30.06 in 10.0 mi Calm Calm - N/A   Clear
5:52 AM 46.0 °F 44.8 °F 43.0 °F 89% 30.06 in 9.0 mi East 3.5 mph - 0.01 in   Clear
6:52 AM 46.0 °F 43.9 °F 43.0 °F 89% 30.06 in 8.0 mi East 4.6 mph - N/A   Clear
7:52 AM 52.0 °F - 46.9 °F 83% 30.06 in 9.0 mi East 5.8 mph - N/A   Clear
8:52 AM 55.9 °F - 48.9 °F 77% 30.06 in 10.0 mi SE 8.1 mph - N/A   Clear
9:52 AM 61.0 °F - 51.1 °F 70% 30.04 in 10.0 mi ESE 9.2 mph - N/A   Clear
10:52 AM 66.0 °F - 51.1 °F 59% 30.03 in 10.0 mi ESE 9.2 mph - N/A   Clear
11:52 AM 70.0 °F - 50.0 °F 49% 30.01 in 10.0 mi East 13.8 mph - N/A   Clear
12:52 PM 71.1 °F - 48.9 °F 45% 30.00 in 10.0 mi SE 12.7 mph 17.3 mph N/A   Clear
1:52 PM 72.0 °F - 48.9 °F 44% 29.97 in 10.0 mi East 11.5 mph 17.3 mph N/A   Clear
2:52 PM 73.0 °F - 48.9 °F 42% 29.95 in 10.0 mi ESE 13.8 mph 19.6 mph N/A   Clear
3:52 PM 73.0 °F - 48.0 °F 41% 29.95 in 10.0 mi ESE 6.9 mph - N/A   Clear
4:52 PM 72.0 °F - 48.9 °F 44% 29.94 in 10.0 mi NE 12.7 mph - N/A   Clear
5:52 PM 69.1 °F - 50.0 °F 51% 29.94 in 10.0 mi ENE 10.4 mph - N/A   Clear
6:52 PM 61.0 °F - 50.0 °F 67% 29.95 in 10.0 mi NE 8.1 mph - N/A   Clear
7:52 PM 60.1 °F - 50.0 °F 69% 29.96 in 10.0 mi ENE 9.2 mph - N/A   Clear
8:52 PM 57.9 °F - 51.1 °F 78% 29.95 in 10.0 mi NE 8.1 mph - N/A   Clear
9:52 PM 55.0 °F - 50.0 °F 83% 29.95 in 10.0 mi NE 5.8 mph - N/A   Clear
10:52 PM 53.1 °F - 50.0 °F 89% 29.95 in 9.0 mi NE 4.6 mph - N/A   Clear
11:52 PM 52.0 °F - 48.9 °F 89% 29.94 in 7.0 mi NE 4.6 mph - N/A   Clear